Wind_Speed
8 14 12 11 9 9 9 10 10 12 15 17 18 18 19 21 21 21 21 21 20 18 16 15 11 7 5 5 5 6 5 6 8 10 10 12 13 14 16 15 16 17 19
0 12 11 9 8 8 7 8 9 10 12 15 17 19 20 19 19 18 18 19 20 18 15 14 12 9 6 5 5 6 6 8 10 11 11 11 12 13 14 14 15 17 18
7 9 9 8 6 5 5 6 7 9 10 12 16 19 19 18 17 17 17 17 17 16 15 13 11 9 8 7 6 6 7 9 10 11 12 12 11 11 12 15 16 18 19
2 4 4 3 3 3 4 4 5 8 9 11 13 16 17 18 18 17 16 16 15 15 15 12 10 8 8 8 7 7 8 9 11 11 10 11 11 11 14 16 17 17 17
8 5 4 2 2 3 4 4 4 6 8 9 11 13 15 16 17 17 16 15 14 14 13 11 9 8 8 8 8 9 9 10 9 8 9 11 11 11 14 17 17 17 16
13 10 8 8 9 8 7 5 6 6 8 10 11 12 14 15 15 15 15 14 13 13 12 11 10 10 9 8 9 10 10 11 9 6 8 9 10 12 16 16 17 16 16
20 16 14 12 11 9 9 9 7 8 10 12 12 12 12 13 14 14 14 13 13 13 12 12 12 11 10 10 10 11 11 12 11 7 9 9 10 12 15 16 16 16 16
27 25 20 15 12 12 11 9 10 10 9 11 12 11 12 13 14 14 14 14 14 13 13 12 12 12 12 12 11 11 12 12 12 9 8 12 12 13 13 14 15 16 16
30 29 29 28 22 17 14 12 11 11 11 10 11 11 12 13 14 15 15 15 15 15 15 14 13 13 13 13 12 12 13 14 13 11 11 12 13 14 13 14 15 15 13
30 30 29 28 27 22 21 18 11 10 9 12 12 13 14 15 16 17 17 17 17 16 16 15 14 14 14 14 13 13 15 16 13 12 14 13 13 14 14 15 15 14 14
30 32 30 28 27 25 23 22 21 12 12 12 12 17 16 18 18 20 21 20 19 18 18 17 16 15 15 14 14 14 15 17 14 15 14 14 14 15 13 15 15 15 16
32 31 32 29 27 26 25 23 21 19 16 13 15 15 17 20 21 22 23 23 21 20 20 19 17 17 17 17 16 16 18 17 15 16 14 15 15 16 15 16 16 16 18
24 29 32 31 30 29 27 26 23 21 19 17 14 15 17 18 21 24 25 25 25 24 23 22 21 20 20 20 19 19 19 19 19 16 17 16 15 16 16 16 17 17 18
27 28 32 32 32 33 32 29 27 25 23 21 18 14 15 19 22 24 26 29 30 29 28 27 26 24 23 22 21 21 21 21 21 18 17 17 15 18 17 17 19 19 20
28 31 33 32 33 35 34 33 31 29 27 24 23 20 17 17 17 26 29 29 29 31 31 30 30 28 26 24 24 23 23 23 22 21 19 18 17 19 17 17 19 20 20
28 31 33 32 34 35 35 34 33 31 28 28 28 24 22 19 22 19 27 30 31 32 30 29 30 32 31 28 26 26 25 24 23 24 20 21 21 21 19 16 19 20 20
30 31 33 31 33 35 36 35 34 30 30 30 29 29 26 25 23 25 25 27 33 35 29 30 32 30 33 31 29 28 27 26 26 26 25 23 25 23 22 19 18 16 19
26 27 27 28 32 34 34 34 32 32 29 29 30 29 29 28 25 23 27 28 21 36 35 32 31 30 31 35 32 31 30 28 27 27 25 23 25 26 27 24 21 18 19
24 28 30 31 33 35 35 33 31 30 30 27 29 29 28 29 26 22 25 29 30 20 36 34 32 32 28 28 36 33 32 33 32 28 29 28 27 27 28 27 26 23 21
25 26 23 25 28 28 27 26 25 25 25 28 27 23 26 26 27 28 30 28 28 36 27 35 34 33 30 26 27 34 34 34 35 33 33 31 30 30 30 28 28 27 27
22 23 25 26 27 27 28 30 30 27 27 27 26 28 27 28 28 27 26 26 30 29 38 29 37 36 31 30 21 19 29 32 35 36 36 36 34 30 30 32 28 28 29
21 24 25 25 25 25 24 26 26 28 27 27 27 26 24 25 29 29 25 25 23 25 26 34 34 34 31 31 18 10 5 12 30 38 38 34 37 34 34 33 33 31 30
23 26 26 26 27 27 28 28 28 27 26 24 25 27 27 27 32 31 30 31 33 34 35 31 22 21 16 22 30 10 3 6 6 15 33 39 38 37 37 36 34 34 34
24 24 25 27 30 28 29 29 31 28 26 28 28 30 31 31 32 29 29 33 35 32 33 30 32 47 39 17 23 31 16 8 4 2 12 30 39 40 41 40 37 35 35
25 27 29 29 30 30 31 31 30 28 28 29 28 28 27 29 29 28 30 31 33 33 35 32 27 31 39 23 31 20 24 11 11 3 4 5 23 34 41 42 41 37 36
25 27 28 30 29 30 33 30 29 30 31 28 27 24 25 27 28 29 25 28 32 32 33 34 30 31 30 32 29 27 26 18 9 4 2 3 7 13 31 35 39 40 38
Wind_Direction
347 185 182 175 168 167 162 152 144 134 128 124 123 133 146 149 151 151 155 158 157 163 169 161 156 150 136 134 139 129 136 121 125 127 126 125 128 128 128 130 133 131 130
11 154 172 172 174 174 170 160 148 140 132 129 129 135 145 150 153 156 161 162 162 169 168 166 163 158 145 139 141 143 146 138 139 136 134 130 131 128 130 138 136 133 138
134 153 168 168 172 176 183 178 161 153 146 141 139 141 149 155 158 160 162 165 169 169 164 170 169 164 156 151 145 149 152 150 146 147 146 143 143 143 142 144 146 146 147
119 135 141 152 182 201 217 207 182 171 161 154 148 147 151 156 160 162 164 166 168 165 166 175 177 173 166 166 167 164 166 161 158 158 158 154 150 151 150 151 152 156 156
73 67 52 6 328 311 285 261 223 192 178 167 160 159 159 161 162 164 167 169 174 172 174 176 179 178 173 176 176 172 173 167 166 171 174 167 163 160 160 158 161 162 162
48 40 30 15 7 350 327 294 253 220 198 188 182 179 176 173 172 172 172 174 180 181 183 183 185 184 183 189 181 176 179 177 180 182 183 182 180 171 168 168 170 168 168
52 44 38 26 14 4 346 321 290 248 219 205 200 194 191 189 183 181 180 180 185 188 190 190 189 190 190 192 186 183 188 187 192 198 195 189 189 183 178 177 178 174 172
59 52 45 33 22 14 0 341 319 292 254 225 215 208 206 205 199 195 194 192 193 197 197 199 198 194 194 195 197 188 195 196 205 211 215 208 204 195 190 183 186 179 175
52 46 43 41 37 36 25 359 333 316 286 256 238 226 223 221 218 212 210 206 204 205 204 206 207 205 203 201 203 198 199 200 212 220 212 199 204 205 197 189 189 186 193
43 38 34 33 34 33 30 24 1 323 307 291 262 243 235 230 230 229 224 220 215 215 213 211 212 214 212 211 211 206 202 205 214 218 210 210 208 210 203 196 195 197 192
30 26 24 22 21 22 22 22 21 7 323 309 291 274 249 240 235 233 233 231 226 222 220 217 215 218 222 222 220 214 210 210 220 212 213 213 209 212 206 198 199 198 196
15 14 14 13 12 10 9 9 8 9 4 333 312 300 286 264 247 241 238 234 233 232 228 224 221 221 225 227 224 219 216 210 216 213 218 217 208 204 204 206 207 203 197
10 9 8 6 3 1 0 356 354 352 348 344 332 315 304 279 261 249 242 236 232 230 231 227 224 222 226 228 225 225 222 217 222 231 220 212 205 208 207 208 205 208 203
6 5 4 4 358 355 352 349 342 339 335 329 328 321 304 296 271 257 246 241 233 230 228 228 227 225 225 229 230 227 227 224 223 228 223 218 209 207 208 215 210 208 209
4 2 2 2 357 353 348 344 339 333 327 319 313 311 310 290 298 264 257 245 235 231 227 228 229 228 225 226 228 228 227 228 223 224 227 226 219 213 213 213 212 212 212
0 1 359 359 356 351 348 344 339 335 328 317 309 302 300 294 284 303 258 247 241 232 228 223 227 231 229 225 226 228 227 229 226 225 233 231 226 219 216 227 219 216 215
1 359 358 353 354 351 347 344 340 335 328 321 314 306 294 291 287 281 272 266 241 239 228 225 227 232 233 232 226 228 228 229 228 225 232 242 228 223 219 220 224 229 229
357 354 352 355 355 352 349 344 338 333 330 325 320 311 302 293 288 287 284 263 277 234 230 226 224 224 226 232 229 226 229 226 225 227 235 231 226 225 221 221 223 220 224
358 357 359 358 355 351 348 344 339 333 330 325 322 316 305 302 292 286 282 278 259 286 226 223 223 221 220 221 230 227 229 229 227 230 229 228 232 236 225 224 223 221 223
359 357 357 353 352 349 344 339 333 328 324 319 318 307 307 305 294 289 284 281 275 260 274 223 219 222 217 218 221 227 231 233 232 232 230 231 231 238 237 227 228 226 224
356 354 357 353 352 349 345 341 335 326 321 316 313 309 301 298 306 303 289 273 272 263 253 264 216 213 211 207 206 227 233 238 237 233 236 234 233 237 237 234 231 230 227
355 358 358 354 348 344 338 331 324 320 316 311 309 308 303 298 297 299 285 275 267 255 261 256 260 213 207 196 194 194 211 237 240 235 238 236 236 235 236 234 233 235 236
359 358 353 349 348 348 343 335 331 328 327 322 318 309 304 295 294 291 284 277 272 266 262 262 236 206 219 193 200 184 165 212 202 228 235 234 234 233 235 234 236 237 238
357 355 356 354 352 350 345 340 339 332 322 316 309 306 301 297 293 287 279 270 266 262 254 256 241 234 258 222 210 215 221 176 183 196 220 230 232 233 234 236 236 237 239
357 358 360 357 353 351 349 347 341 329 325 322 315 310 302 297 292 292 287 279 261 255 249 245 235 211 216 238 209 206 215 204 196 136 197 212 222 228 233 238 240 241 244
0 360 0 358 354 352 355 345 341 337 334 330 325 327 322 313 309 304 295 284 267 259 247 244 233 233 211 228 223 219 215 202 202 151 150 186 220 218 230 237 243 245 247
Height
776 777 780 783 784 786 787 787 788 788 787 787 788 789 791 792 793 794 795 795 797 800 802 803 806 807 807 807 807 808 807 808 808 808 809 809 810 811 812 814 816 816 817
776 779 782 784 786 787 789 789 790 791 790 790 790 792 794 796 797 797 799 799 799 801 802 805 806 806 807 807 807 807 808 808 808 809 810 811 812 814 814 816 817 818 819
781 782 784 786 788 789 790 791 791 792 792 792 792 793 795 796 799 800 801 802 801 801 803 806 806 806 806 807 807 808 809 809 809 810 811 812 813 814 815 817 818 819 820
785 787 789 790 790 791 792 792 793 793 794 795 795 794 796 797 798 799 801 802 803 802 803 806 807 806 806 806 807 808 809 810 811 811 812 813 814 815 816 818 819 820 820
788 790 791 792 793 793 794 794 795 795 796 797 798 798 797 798 798 799 800 801 803 802 804 805 807 807 807 807 807 808 809 811 812 813 812 813 814 815 817 817 819 820 821
792 793 793 794 794 795 794 794 795 795 796 797 797 798 798 798 798 799 800 801 803 803 804 805 806 806 807 808 808 809 810 811 812 813 814 814 814 815 816 817 819 820 822
795 795 794 793 793 794 795 795 795 794 795 796 797 798 799 800 799 799 800 801 803 804 804 804 805 806 806 807 808 809 810 811 812 812 814 815 815 816 816 818 819 821 822
799 798 795 795 793 793 793 795 796 796 796 796 797 798 799 800 799 799 799 800 801 802 803 804 805 805 805 806 807 808 809 811 812 811 812 813 816 816 816 818 819 821 823
803 800 799 796 794 794 794 794 794 795 796 797 797 797 799 800 799 798 798 798 798 800 801 803 804 804 804 805 805 806 807 808 810 810 811 811 814 815 816 817 820 821 823
804 803 801 800 798 796 795 793 792 793 794 796 795 795 796 796 797 797 797 797 797 798 800 800 802 803 803 804 805 805 806 807 808 808 809 810 812 814 815 817 820 820 823
805 805 804 802 799 798 796 795 793 792 793 793 793 794 793 793 793 793 795 796 796 796 797 798 799 802 803 804 805 805 806 807 807 807 808 809 811 813 815 816 819 821 822
811 809 807 804 802 799 798 795 794 793 792 792 791 792 792 791 790 791 792 793 795 796 796 796 798 799 801 801 803 804 804 806 807 807 807 808 809 811 813 815 817 821 822
819 815 810 806 803 800 797 795 793 792 791 790 790 789 789 788 787 788 788 789 790 791 793 794 794 795 797 799 799 802 803 804 806 807 806 806 808 810 811 811 814 818 820
818 817 813 808 803 799 796 794 793 791 789 788 787 786 786 785 785 784 784 785 785 785 787 789 790 791 792 795 797 798 800 801 803 804 806 806 806 808 811 811 810 813 817
819 815 811 807 803 799 795 792 790 788 786 784 783 782 782 781 781 781 780 780 780 781 780 782 785 787 788 790 793 794 796 798 800 802 804 806 806 807 809 810 811 811 814
821 816 811 806 802 798 794 790 787 784 782 780 778 778 777 777 776 776 774 774 775 775 776 776 779 781 784 784 787 791 792 795 797 799 801 803 805 806 807 808 809 811 812
821 816 811 806 802 797 792 788 784 782 779 776 773 772 771 771 771 770 770 767 767 769 770 771 772 776 779 781 782 785 788 790 793 794 796 799 802 804 806 807 808 809 811
823 818 813 808 803 797 793 787 784 779 776 773 770 767 765 765 765 764 761 761 761 760 762 765 765 768 771 775 776 778 782 784 787 789 792 794 797 800 801 804 806 807 809
823 816 809 805 801 795 791 786 782 778 773 770 768 763 760 759 758 758 756 753 755 753 752 756 758 759 763 766 770 772 775 778 781 784 786 788 791 795 797 799 802 804 806
821 817 811 806 801 796 792 787 783 778 773 768 765 762 758 754 753 751 749 748 747 746 747 746 747 751 753 760 763 765 768 772 775 777 780 783 784 788 791 793 795 798 801
821 816 810 805 800 795 788 783 779 776 772 766 762 759 755 750 747 745 742 741 740 739 740 739 735 739 744 750 759 762 763 766 770 771 775 777 778 781 785 787 789 791 794
820 814 809 806 801 796 791 787 784 776 770 764 759 755 751 746 743 740 738 734 732 731 729 729 734 725 734 736 748 756 759 762 762 763 767 770 772 775 777 780 783 786 789
818 812 809 805 799 793 789 784 777 770 764 760 756 751 746 740 736 733 730 728 725 723 719 717 716 701 712 727 738 742 752 751 754 756 758 763 766 767 771 773 774 778 782
817 812 807 802 797 793 789 782 774 767 763 758 753 746 738 734 729 725 721 718 716 714 711 709 706 706 718 724 737 734 737 738 747 753 751 754 759 761 762 766 767 770 774
817 810 803 799 797 792 787 780 775 770 763 755 748 741 734 727 722 717 713 709 706 704 703 703 702 705 713 714 723 726 734 735 737 741 746 749 752 751 753 758 760 762 767
817 811 805 800 798 793 785 784 778 770 761 752 745 738 731 723 716 711 705 700 696 695 695 696 697 698 697 711 714 717 720 727 731 733 742 743 745 743 745 749 753 755 759